OPS 4682 DEB, 1399

Orbit data source: Space-Track

OPS 4682 DEB, 1399 is space debris in LEO originally from a launch on Sat, 03 Apr 1965 UTC launched from the Air Force Western Test Range (AFWTR). Debris objects in space refer to the collection of defunct objects orbiting the Earth. Examples of debris include non-operational satellites, rocket bodies, and fragments generated from explosions, collisions, or faulty payload assembly.

Loading next visibility...
Identifier
1399, 1965-027E
Orbit
LEO
Last TLE update
6 hours ago
Origin
Manufacturer
Unknown
Mission
Spacecraft
Bus & Motor
Unknown
Mass
Unknown
Launch date (UTC)
1965-04-03 (60 years ago)
Launch vehicle
Unknown
Launch site
Air Force Western Test Range (AFWTR)
Object type
Payload
Rocket body
Debris
Shape & HBR
Unknown
Radar Cross Section
Small (<0.1 m²)

Expand to show TLE details & history

TLE from 6 hours ago
0 OPS 4682 DEB
1 01399U 65027E   25186.48789611 -.00000301  00000-0 -10309-2 0  9999
2 01399  90.2572  16.5879 0011033 117.3592 242.8654 12.99736779588069
Epoch: 2025-07-05T11:42Z
TLE epoch observation values (Epoch: 2025-07-05T11:42:34.223Z)
Latitude
-0.00006°
Longitude
-82.77992°
Altitude
1,269.855 km
Speed
7.219 km/s
True Right ascension
01h 06m 21s
True Declination
0° 00' 00"
Sunlit
Object was in daylight at epoch
Visualization orbit readout
Latitude
20.52717°
Longitude
97.32219°
Altitude
1,259.465 km
Speed
7.23 km/s
Apparent Right ascension
15h 01m 31s
Apparent Declination
-8° 11' 39"
Sunlit
Object is in daylight
Visualization observer readout
Local Sidereal Time
05:59:37
Azimuth
63.669° ENE
Elevation
-39.25°
Doppler factor
1
Orbital elements
Apogee altitude
1,268.673 km
Perigee altitude
1,251.818 km
Semi-major axis
7,638.383 km
Eccentricity
0.0011
Inclination
90.2572°
RAAN
16.5879°
Arg. of periapsis
117.3592°
True anomaly
Unknown
Mean anomaly
242.8654°
Eccentric anomaly
Unknown
Mean motion
3.25118 °/min
Orbital period
110.73 mins
BSTAR
-0.0010309
Loading maneuver chart data...
Loading SW <> Apogee altitude chart data...
Loading historical data...
Loading historical data...
Loading historical data...
Loading historical data...
Loading historical data...
Loading historical data...
Loading historical data...

OPS 4682 DEB Visibility forecast

Observer location: undefined°, undefined°

Span
Click to sort rows by Start time (UTC) header in descending order
Start Az.
Max El. time (UTC)
Max El. Az.
Max El.
End time (UTC)
End Az.
9 mins2025-07-05 23:26:08.709Z40.694° NE2025-07-05 23:30:08.709Z75.9° E17.628°2025-07-05 23:35:08.709Z118.491° SE
13 mins2025-07-06 01:15:08.709Z358.799° N2025-07-06 01:21:08.709Z307.52° NW44.029°2025-07-06 01:28:08.709Z191.682° SSW
4 mins2025-07-06 03:09:08.709Z307.478° NW2025-07-06 03:11:08.709Z290.768° WNW12.439°2025-07-06 03:13:08.709Z274.542° WNW
10 mins2025-07-06 11:52:08.709Z122.583° SE2025-07-06 11:56:08.709Z81.409° E26.828°2025-07-06 12:02:08.709Z21.059° NNE
12 mins2025-07-06 13:41:08.709Z203.902° SW2025-07-06 13:47:08.709Z281.776° WNW37.118°2025-07-06 13:53:08.709Z344.367° N
|